Dewpoint
3 4 4 3 3 4 4 5 5 3 2 2 2 2 1 -1 -2 -2 -2 6 9 11 11 11 10 12 12 12 11 11 10 11 10 7 6 4 0 -5 -6 -6 -6 -7 -8 -8
3 4 3 2 2 4 4 5 4 3 1 2 2 3 1 -0 -2 -2 -2 2 10 11 12 12 12 11 10 11 12 11 11 11 11 10 9 8 6 1 -2 -3 -3 -4 -6 -7
3 1 1 3 3 4 4 4 4 4 2 1 2 2 1 -1 -2 -2 -1 -2 -1 9 9 11 8 6 5 5 10 12 11 11 11 10 9 9 5 1 -1 0 0 1 -2 -5
3 2 2 3 4 3 5 2 3 4 3 3 1 5 2 1 0 -2 -2 -0 -2 6 10 8 7 6 8 8 9 9 11 11 10 11 8 10 9 7 5 6 7 6 3 -1
0 3 3 4 4 3 3 0 1 2 2 2 2 3 2 1 1 -1 -3 -2 -2 1 1 10 11 11 10 9 8 8 11 11 10 10 9 9 9 9 7 7 5 7 6 4
1 0 2 2 2 2 1 1 1 1 2 5 2 3 2 1 -1 -2 -3 -3 -2 -2 2 3 9 10 11 10 9 9 9 9 9 10 9 8 10 9 7 6 7 7 7 6
-1 1 2 2 3 3 1 3 0 1 6 5 -1 2 2 -0 -1 -1 -2 -2 -3 -1 0 5 9 11 11 10 10 9 8 8 8 7 10 9 10 9 7 7 8 7 8 8
-1 -4 3 2 2 3 2 2 2 2 2 3 2 4 3 -1 -2 -2 -2 -3 -3 -2 2 5 7 8 9 10 9 8 8 8 7 8 11 10 9 9 8 7 8 7 8 8
-0 0 1 2 2 1 2 3 0 4 3 5 2 1 -2 -3 -2 -4 -3 -3 -3 -3 -1 3 6 6 9 9 9 9 9 9 8 9 11 10 9 9 8 8 8 8 8 8
-4 -1 1 2 2 2 1 0 4 5 5 5 3 2 2 -1 -3 -3 -3 -4 -4 -4 -3 -1 4 6 8 9 6 9 9 9 10 8 10 9 9 9 9 8 8 9 8 7
-3 -2 -1 2 4 4 4 4 2 2 2 4 5 3 -1 -1 -2 -3 -3 -3 -4 -5 -3 -4 0 3 4 8 10 9 10 9 9 9 9 10 9 10 9 8 8 8 7 8
-3 -2 0 2 -1 1 2 3 2 3 3 2 1 3 -2 -3 -3 -3 -3 -3 -4 -3 -5 -2 -3 1 7 10 10 8 8 9 7 7 9 8 9 10 10 9 9 8 8 8
-3 -1 -1 -2 -3 -0 3 3 2 1 1 3 3 2 -2 -3 -2 -3 -4 -4 -4 -3 -4 -7 -3 2 8 9 9 8 7 7 9 8 9 10 10 10 10 9 9 9 9 8
-4 -2 -1 -2 -6 -1 3 3 3 2 3 2 2 0 -2 -3 -2 -3 -4 -5 -4 -4 -4 -6 -8 -7 -3 9 10 9 8 8 9 10 10 11 10 10 10 10 9 8 9 8
-4 -2 -3 -3 -5 -2 0 0 3 3 2 3 -0 1 -1 -3 -2 -3 -3 -3 -4 -4 -4 -4 -7 -8 -8 -7 1 8 7 9 10 10 10 10 10 10 10 10 10 9 8 8
-3 -2 -3 -2 -3 -3 -2 -3 1 2 2 1 1 1 -2 -3 -4 -4 -4 -4 -4 -4 -4 -4 -5 -6 -8 -8 -5 -0 8 8 9 9 9 10 9 10 10 9 9 9 8 7
-1 -1 -1 -0 -2 -3 -1 -2 -3 -2 0 1 3 0 -4 -5 -6 -5 -6 -6 -5 -6 -6 -6 -6 -7 -8 -9 -6 -4 -3 7 9 9 9 10 9 9 9 9 9 9 8 7
2 2 0 2 -3 2 -4 -6 -5 -4 -6 -6 -6 -6 -7 -7 -7 -7 -7 -6 -7 -7 -7 -7 -7 -7 -8 -8 -7 -4 -1 -0 5 9 9 9 9 9 9 9 9 8 8 7
-2 1 3 3 3 -2 -5 -7 -6 -5 -6 -7 -6 -7 -7 -7 -8 -7 -7 -7 -8 -8 -8 -7 -7 -6 -6 -6 -6 -3 1 5 6 7 8 9 9 8 8 8 8 8 8 7
-2 -1 3 3 3 2 -4 -7 -8 -9 -4 -10 -8 -7 -7 -7 -5 -7 -6 -6 -5 -5 -5 -5 -5 -5 -4 -4 -3 -2 -1 1 3 6 6 7 7 6 5 5 6 7 7 7
-0 1 3 3 4 1 -6 -10 -11 -6 -7 -6 -6 -6 -6 -6 -6 -5 -5 -6 -6 -6 -6 -5 -5 -4 -4 -3 -3 -2 -2 -1 0 2 3 4 5 5 4 4 5 5 5 4
0 2 2 3 3 3 -7 -9 -6 -7 -6 -6 -6 -5 -5 -5 -6 -6 -6 -6 -6 -6 -6 -6 -7 -7 -6 -5 -4 -4 -3 -2 -2 -1 -0 1 2 3 3 3 4 3 3 2
2 -1 -1 -2 -1 -5 -8 -8 -8 -7 -6 -6 -6 -6 -6 -5 -5 -6 -5 -5 -5 -6 -6 -6 -7 -7 -7 -7 -6 -6 -5 -4 -3 -2 -2 -2 -1 -1 0 1 1 1 2 -0
-1 -2 -3 -1 -2 -4 -5 -6 -6 -6 -6 -6 -6 -6 -6 -5 -5 -5 -6 -6 -6 -6 -6 -6 -6 -7 -7 -7 -7 -7 -7 -6 -5 -4 -2 -2 -2 -2 -2 -1 -1 -1 -1 -0
-1 0 1 1 -0 -2 -3 -3 -4 -5 -5 -5 -5 -5 -5 -5 -5 -4 -4 -4 -5 -5 -5 -5 -5 -5 -5 -5 -6 -6 -6 -6 -6 -4 -3 -2 -2 -2 -2 -2 -2 -2 -2 -2
-6 -1 1 2 -0 -0 -2 -1 -2 -3 -3 -3 -3 -4 -3 -3 -2 -3 -2 -1 -2 -3 -4 -4 -4 -4 -4 -5 -5 -5 -5 -5 -5 -4 -3 -2 -2 -3 -3 -3 -3 -3 -3 -3
Wind_Speed
2 1 6 8 6 5 5 4 7 5 9 5 8 10 9 15 13 18 16 14 25 28 31 29 36 42 38 38 36 34 33 31 32 30 28 26 24 22 20 18 16 14 13 11
2 7 9 5 5 6 5 6 7 8 5 5 11 16 12 9 10 21 19 17 23 27 28 37 40 29 23 30 36 36 34 31 33 31 27 26 24 23 21 19 18 15 14 13
7 5 3 5 4 5 4 5 5 8 6 5 7 8 4 4 13 20 25 25 24 34 37 39 38 35 29 29 33 37 33 35 34 33 31 29 29 27 24 23 20 18 16 15
7 5 8 7 7 6 4 6 7 5 3 3 5 8 5 6 8 7 18 22 30 28 35 45 41 40 43 45 35 35 40 40 37 37 36 34 32 30 24 23 22 19 17 16
7 3 5 5 6 7 7 2 4 3 3 3 3 0 6 4 5 9 8 21 30 31 30 36 41 47 46 46 46 41 37 41 41 40 39 38 35 31 26 27 23 21 19 18
8 3 5 8 5 6 1 2 2 3 2 5 4 5 5 4 5 3 4 8 24 32 34 34 36 38 46 51 50 43 38 44 41 41 40 41 36 33 31 28 27 23 19 19
4 5 3 4 3 2 3 1 3 4 2 5 2 1 10 7 7 6 8 22 16 27 34 37 38 40 43 51 51 45 37 40 44 44 50 47 43 36 31 32 28 27 22 21
3 7 9 6 6 6 5 6 5 5 3 4 1 6 6 5 7 11 19 17 15 17 28 37 36 37 40 49 54 51 50 39 44 47 54 49 47 43 39 35 31 28 24 20
6 6 2 3 2 7 5 4 4 1 3 1 3 7 10 7 5 4 5 13 15 12 20 32 37 38 40 41 43 55 57 49 47 48 50 53 47 44 42 39 33 28 25 22
5 3 2 2 2 2 5 5 3 1 4 5 5 5 6 6 3 4 7 6 10 11 16 23 32 39 41 41 40 42 43 56 56 55 54 51 52 50 46 42 36 32 28 26
5 5 2 4 8 9 4 4 2 2 4 4 3 5 7 7 5 5 9 5 9 15 16 18 22 31 38 42 42 44 47 50 53 55 53 53 48 51 50 43 38 35 32 28
7 5 5 11 3 7 5 8 7 4 5 3 3 6 4 7 6 5 7 3 3 16 19 15 15 17 25 34 40 42 44 55 55 55 55 55 55 50 49 47 44 36 35 31
8 5 1 5 4 1 6 6 9 4 2 6 5 6 2 3 4 3 5 14 17 20 22 18 13 10 18 25 32 35 35 38 52 63 62 59 55 54 56 54 47 44 39 35
12 6 9 14 6 5 5 8 15 11 3 10 13 12 12 11 10 13 25 31 28 21 16 13 15 10 8 18 25 30 31 31 35 43 51 55 54 55 51 50 52 49 43 38
9 17 9 11 5 6 6 5 15 16 22 10 17 15 23 9 10 17 26 29 29 26 19 16 16 16 12 12 17 23 26 29 32 35 39 45 44 45 46 45 52 49 43 39
5 17 9 16 9 9 10 10 10 17 18 20 18 21 25 24 27 20 22 22 26 29 24 22 17 17 18 19 17 19 22 27 28 31 33 36 38 47 41 39 48 41 42 39
4 5 5 19 6 5 11 15 15 12 12 13 14 24 23 14 13 9 20 26 22 18 14 16 13 12 13 15 15 15 17 17 20 25 26 28 31 29 26 32 35 35 38 38
14 14 10 9 5 14 10 8 13 21 19 17 15 15 18 14 24 18 20 22 17 12 8 7 9 10 11 13 15 13 12 13 14 13 17 19 21 22 23 23 26 24 34 38
21 14 7 8 10 9 4 5 7 7 8 8 11 13 18 14 9 13 11 9 6 7 7 6 7 8 8 10 11 10 9 10 12 13 13 13 15 17 18 21 26 30 35 36
20 19 10 4 9 13 6 13 13 6 8 6 3 5 7 0 3 4 8 7 5 4 4 3 3 3 4 3 4 4 4 5 7 9 10 12 14 17 19 22 23 26 29 33
12 13 16 15 8 5 6 6 11 6 6 4 3 3 2 3 3 7 8 13 10 11 10 8 7 7 6 4 5 4 4 4 1 5 7 10 11 14 16 18 21 23 27 29
11 11 7 7 5 9 7 4 11 4 7 11 9 12 15 19 19 18 13 14 12 12 11 11 10 10 9 7 5 5 6 3 1 2 4 7 10 12 14 16 17 20 23 27
5 5 6 8 5 1 6 1 8 18 20 12 16 15 16 19 20 23 15 16 14 14 12 11 11 11 10 8 7 5 2 2 4 3 3 4 7 10 12 14 16 18 21 25
3 1 4 5 1 4 8 11 14 20 21 19 19 17 17 20 18 18 15 14 14 12 12 10 9 11 9 8 6 5 5 4 4 4 5 6 6 7 10 12 14 16 19 23
5 7 2 5 5 10 11 14 21 23 22 23 21 19 16 16 18 16 15 14 14 13 11 10 11 11 10 9 7 6 5 6 6 5 5 7 7 7 8 10 12 13 16 18
12 5 2 0 11 5 8 14 18 22 22 20 20 19 15 15 16 12 13 10 10 11 11 11 11 10 11 9 8 7 7 7 5 5 3 4 5 5 6 7 8 11 13 15
Wind_Direction
219 179 228 229 214 241 269 249 261 259 274 283 267 277 261 278 267 272 262 241 212 208 210 207 203 202 209 199 200 197 204 208 202 200 200 203 203 202 202 204 208 210 213 213
352 239 233 225 237 239 244 268 272 285 278 282 285 280 265 229 230 246 248 235 215 198 193 195 199 197 222 212 202 205 208 217 210 206 210 213 208 207 207 206 209 214 218 220
199 222 141 176 228 246 244 235 257 257 315 279 308 286 246 252 238 248 244 237 233 209 202 196 202 221 263 236 223 215 214 216 214 212 213 215 213 213 208 208 210 217 222 224
244 259 217 228 238 175 271 227 254 274 342 271 44 297 267 253 252 258 249 236 232 218 213 215 212 205 208 214 216 221 220 214 215 214 217 221 222 219 217 224 222 218 223 229
246 206 208 203 217 164 231 197 252 258 260 329 292 356 275 262 247 255 253 233 232 227 222 214 204 208 211 212 214 216 214 213 217 216 223 223 223 227 223 226 217 217 222 228
245 253 210 207 204 189 258 260 83 39 124 266 227 186 276 235 220 248 255 258 234 226 226 226 225 221 218 217 214 214 225 219 222 228 223 228 228 226 227 227 221 220 225 234
307 218 225 157 153 196 121 85 336 8 209 240 220 97 251 262 255 256 270 290 268 232 225 225 221 220 221 216 214 214 211 216 220 234 234 225 227 227 228 231 225 226 230 241
191 311 179 194 187 176 165 165 165 225 198 267 348 235 250 235 269 262 265 273 274 254 234 229 225 223 225 223 222 215 218 211 198 208 217 221 224 226 228 229 231 233 235 246
177 271 195 180 165 141 182 190 197 137 38 284 243 293 290 292 237 339 337 269 271 269 238 231 230 230 227 228 228 223 223 216 212 216 214 219 223 226 228 229 228 230 232 237
213 280 211 172 120 207 165 162 104 85 228 245 270 264 237 306 244 288 355 336 314 298 259 242 235 234 234 234 234 228 223 214 216 214 219 221 223 226 226 229 227 228 232 231
146 145 281 127 208 176 169 203 180 148 179 196 282 256 215 229 230 302 313 333 340 342 327 253 246 244 242 239 233 233 227 220 221 224 225 226 226 227 225 227 229 231 231 235
209 161 207 213 224 185 189 196 159 157 215 246 167 272 249 228 218 226 273 257 330 5 342 320 267 258 244 232 229 233 235 227 224 223 228 231 233 234 229 225 229 230 232 238
181 219 285 316 0 24 210 193 198 126 98 200 153 258 207 215 287 280 295 295 296 312 315 302 298 287 250 240 235 236 238 240 234 229 234 237 234 232 230 228 228 225 228 232
186 189 192 234 207 138 203 193 196 191 166 238 222 262 273 283 294 302 294 292 295 299 299 275 285 280 281 245 241 242 242 243 242 236 236 236 236 235 232 234 231 229 226 227
176 247 222 234 187 175 212 192 196 205 220 211 246 225 261 243 243 256 272 282 286 289 285 279 255 271 275 256 248 241 246 246 242 242 240 238 236 236 235 236 235 231 228 227
191 240 218 249 205 206 247 229 200 214 227 244 257 269 265 282 280 277 271 280 279 279 271 269 266 250 272 277 260 247 239 241 245 242 242 238 239 239 234 251 245 231 228 227
260 204 161 246 181 165 259 228 212 214 214 222 230 247 273 277 268 252 280 287 277 283 282 263 239 251 261 265 265 259 255 242 239 236 235 235 235 238 239 237 231 229 227 225
247 253 254 249 151 220 240 193 201 215 234 235 243 259 270 262 275 282 279 271 269 254 247 241 245 252 256 260 267 254 240 240 235 231 232 231 230 228 223 227 227 240 230 225
224 231 237 219 223 270 264 185 161 169 252 219 227 239 255 284 298 278 239 236 235 245 253 249 228 232 251 256 256 253 242 224 217 217 224 230 231 234 238 239 234 232 230 228
202 204 207 184 218 228 212 232 242 130 261 245 196 264 277 111 211 275 157 134 112 103 152 174 183 179 195 203 205 218 227 231 238 233 225 227 233 235 240 243 240 234 231 234
192 200 221 218 237 258 238 157 129 152 224 150 158 258 183 143 191 105 115 106 99 88 82 84 101 106 107 105 107 108 87 71 179 218 225 228 233 236 238 241 242 241 239 233
187 187 194 211 240 245 175 94 196 198 136 138 126 120 121 120 114 104 95 90 89 87 80 75 85 83 80 82 93 104 110 101 108 211 228 235 239 241 243 242 243 242 240 236
245 205 198 187 202 327 169 170 165 159 147 141 132 131 133 117 108 108 96 94 84 79 75 63 62 66 58 54 56 58 69 261 250 248 255 255 250 247 247 245 241 237 234 230
347 359 148 132 98 61 74 120 146 152 137 133 129 131 129 115 108 100 101 87 83 71 62 51 45 49 46 36 24 14 355 335 312 271 245 240 257 263 251 243 239 237 236 235
349 307 79 66 96 82 75 105 125 124 125 124 121 113 109 114 100 98 88 75 65 59 50 38 35 36 41 35 20 0 339 321 304 285 254 244 245 253 261 254 249 248 247 247
338 345 302 248 174 104 124 115 121 115 111 116 126 123 118 103 98 94 87 75 61 57 54 52 52 50 46 39 33 27 20 7 340 306 273 245 249 256 260 260 255 249 247 246
Height
1499 1503 1504 1498 1497 1496 1498 1497 1498 1491 1482 1482 1476 1472 1466 1460 1458 1455 1455 1456 1458 1458 1461 1462 1470 1470 1465 1486 1492 1496 1500 1503 1507 1511 1514 1517 1520 1523 1526 1529 1531 1533 1534 1535
1501 1502 1492 1491 1493 1494 1494 1495 1494 1486 1480 1479 1472 1463 1458 1453 1449 1446 1448 1450 1452 1456 1457 1459 1465 1463 1473 1475 1486 1492 1495 1498 1503 1508 1511 1515 1518 1521 1524 1526 1529 1531 1532 1534
1499 1488 1486 1488 1488 1491 1492 1493 1491 1489 1481 1476 1473 1460 1451 1444 1441 1438 1439 1442 1444 1448 1452 1456 1459 1461 1465 1473 1478 1487 1489 1494 1499 1504 1509 1512 1515 1518 1520 1522 1525 1528 1530 1531
1494 1485 1484 1487 1487 1488 1493 1485 1485 1485 1486 1494 1476 1471 1455 1443 1440 1435 1433 1435 1435 1441 1448 1450 1455 1459 1460 1466 1470 1478 1482 1487 1493 1498 1504 1507 1511 1514 1516 1519 1521 1524 1527 1528
1486 1483 1484 1484 1483 1483 1486 1479 1482 1481 1488 1489 1481 1493 1454 1445 1438 1431 1427 1427 1428 1430 1436 1442 1448 1452 1454 1461 1463 1469 1473 1479 1484 1493 1500 1504 1508 1512 1513 1515 1518 1520 1523 1525
1481 1479 1479 1477 1477 1479 1479 1480 1482 1490 1492 1484 1477 1482 1464 1445 1433 1425 1422 1421 1421 1424 1427 1430 1434 1441 1446 1454 1459 1461 1466 1471 1476 1483 1493 1501 1504 1507 1508 1510 1513 1516 1518 1520
1481 1477 1472 1472 1477 1478 1480 1482 1519 1511 1486 1486 1495 1490 1450 1433 1429 1425 1422 1419 1419 1420 1423 1426 1429 1433 1438 1444 1451 1456 1462 1465 1469 1480 1487 1492 1498 1501 1502 1505 1508 1511 1513 1515
1493 1482 1471 1467 1468 1474 1481 1484 1503 1495 1513 1489 1477 1470 1443 1424 1423 1423 1418 1416 1416 1418 1420 1421 1424 1428 1432 1439 1444 1450 1455 1461 1465 1466 1473 1482 1489 1491 1495 1500 1501 1505 1508 1511
1485 1476 1464 1465 1466 1468 1480 1483 1476 1480 1490 1480 1474 1456 1432 1418 1420 1421 1418 1416 1413 1414 1414 1418 1422 1424 1428 1431 1435 1439 1446 1454 1457 1463 1467 1470 1474 1481 1488 1494 1496 1499 1503 1507
1462 1472 1464 1464 1464 1466 1469 1470 1481 1481 1486 1479 1471 1465 1448 1423 1421 1420 1417 1417 1414 1411 1411 1412 1415 1419 1421 1424 1429 1433 1436 1441 1447 1454 1458 1460 1465 1473 1481 1487 1490 1494 1498 1501
1461 1467 1469 1465 1464 1463 1467 1469 1472 1475 1480 1476 1473 1458 1430 1424 1420 1421 1419 1417 1416 1413 1409 1408 1411 1413 1416 1419 1424 1427 1431 1436 1441 1447 1451 1456 1459 1467 1473 1477 1482 1488 1493 1493
1454 1464 1473 1460 1452 1451 1454 1456 1463 1474 1469 1478 1482 1453 1416 1418 1417 1417 1419 1416 1415 1414 1411 1409 1408 1408 1410 1413 1417 1422 1426 1430 1435 1439 1442 1447 1453 1459 1465 1467 1473 1480 1485 1486
1449 1458 1474 1456 1457 1454 1452 1449 1446 1456 1464 1464 1472 1447 1413 1415 1415 1414 1414 1414 1414 1414 1411 1408 1406 1404 1405 1407 1410 1414 1417 1421 1426 1431 1435 1438 1444 1448 1455 1461 1466 1472 1475 1479
1436 1443 1438 1431 1434 1441 1447 1441 1440 1446 1462 1440 1438 1424 1416 1412 1412 1408 1408 1408 1408 1410 1409 1407 1404 1403 1401 1403 1405 1409 1411 1414 1418 1422 1426 1430 1434 1440 1448 1453 1457 1463 1466 1470
1436 1433 1433 1424 1423 1432 1431 1429 1433 1438 1428 1435 1419 1424 1403 1411 1411 1406 1404 1403 1402 1402 1404 1404 1403 1401 1400 1400 1401 1402 1405 1408 1411 1415 1418 1422 1428 1433 1439 1443 1448 1452 1460 1463
1426 1420 1425 1419 1423 1427 1427 1423 1425 1424 1424 1421 1419 1415 1399 1403 1404 1401 1399 1399 1397 1395 1395 1398 1399 1398 1397 1397 1398 1398 1399 1402 1406 1410 1413 1418 1424 1423 1430 1431 1437 1446 1453 1456
1427 1423 1427 1411 1418 1422 1424 1410 1416 1414 1410 1410 1418 1402 1393 1399 1398 1398 1396 1394 1393 1391 1389 1390 1393 1393 1394 1394 1394 1395 1396 1398 1402 1404 1409 1412 1417 1421 1423 1428 1432 1439 1445 1450
1421 1422 1418 1414 1420 1414 1380 1390 1391 1395 1393 1397 1398 1398 1392 1392 1390 1391 1391 1389 1389 1389 1388 1388 1389 1390 1390 1391 1390 1391 1393 1394 1396 1400 1404 1407 1413 1416 1419 1423 1429 1432 1437 1442
1404 1411 1409 1403 1404 1392 1386 1385 1391 1395 1393 1389 1393 1391 1387 1387 1388 1384 1384 1385 1387 1387 1386 1386 1387 1387 1388 1389 1389 1389 1391 1393 1396 1397 1401 1405 1409 1413 1417 1419 1423 1428 1432 1435
1386 1391 1400 1398 1390 1387 1375 1377 1375 1382 1390 1382 1384 1386 1387 1387 1392 1383 1383 1382 1385 1386 1386 1386 1386 1386 1387 1388 1388 1390 1391 1393 1396 1399 1401 1404 1407 1410 1413 1417 1419 1422 1426 1430
1376 1382 1382 1382 1381 1386 1371 1368 1371 1390 1385 1379 1380 1382 1383 1385 1386 1387 1388 1384 1387 1387 1388 1388 1388 1388 1388 1389 1390 1391 1393 1395 1396 1398 1400 1402 1405 1408 1411 1413 1416 1419 1422 1427
1367 1369 1374 1376 1379 1375 1365 1370 1373 1371 1373 1376 1379 1380 1383 1383 1383 1385 1389 1387 1389 1389 1390 1392 1390 1389 1390 1391 1392 1392 1393 1395 1396 1397 1399 1401 1403 1405 1407 1410 1413 1416 1420 1425
1360 1352 1356 1361 1363 1360 1359 1360 1362 1365 1369 1375 1377 1381 1384 1384 1384 1380 1391 1389 1390 1391 1393 1394 1393 1391 1391 1392 1393 1393 1394 1395 1396 1397 1399 1400 1402 1404 1406 1408 1410 1413 1417 1421
1353 1351 1351 1359 1363 1363 1363 1363 1364 1366 1368 1373 1377 1380 1384 1383 1385 1387 1390 1391 1391 1392 1393 1394 1394 1391 1392 1393 1393 1393 1394 1394 1395 1396 1397 1398 1400 1402 1404 1405 1408 1410 1414 1417
1368 1358 1352 1357 1364 1367 1368 1367 1367 1370 1373 1374 1378 1381 1384 1386 1385 1388 1390 1391 1392 1393 1394 1394 1393 1393 1395 1394 1394 1394 1393 1393 1393 1394 1395 1396 1397 1399 1401 1403 1406 1408 1411 1414
1383 1368 1359 1357 1358 1361 1369 1372 1372 1374 1376 1379 1380 1384 1389 1387 1386 1391 1392 1393 1394 1395 1395 1395 1395 1396 1396 1396 1395 1395 1394 1394 1393 1393 1393 1395 1396 1398 1399 1401 1403 1404 1407 1409